Simultaneous Nadir Overpasses (SNOs) Predictions

Prediction of SNOs between GOES-15 and METOP-A Satellite Orbit:

Table of predicted SNOs for the next 14.0 days since TLE Epoch: 4/5/2013
<
Index Date Time (GOES-15) GOES-15 Lat,Lon METOP-A Lat,Lon Distance(km) Time Diff (sec)
1 04/05/2013 18:23:32 -0.00,-134.86 -0.31,-133.47 158.87 80
2 04/07/2013 06:39:54 0.00,-134.82 -0.70,-138.07 369.94 80
3 04/08/2013 06:21:56 0.00,-134.78 0.38,-133.08 194.63 80
4 04/09/2013 18:38:09 -0.00,-134.71 0.68,-137.63 334.20 80
5 04/10/2013 18:20:12 0.00,-134.66 -0.47,-132.65 230.19 80
6 04/12/2013 06:36:33 0.00,-134.61 -0.59,-137.24 299.35 80
7 04/13/2013 06:18:34 0.00,-134.57 0.50,-132.24 264.54 80
8 04/14/2013 18:34:49 -0.01,-134.48 0.50,-136.81 265.57 80
9 04/15/2013 18:16:50
